Temperature
12 12 11 11 11 10 10 10 10 10 9 9 9 9 9 9 9 9 9 9 9 9 9 10 10 10 10 10 10 11 11 11 11 12 12 13 13 14 14 15 15 16 16
12 11 11 11 10 10 10 10 9 9 9 9 9 9 9 9 9 8 9 9 9 9 9 9 9 9 10 10 10 10 11 11 11 11 12 12 12 13 14 14 15 15 15
11 11 11 10 10 10 10 10 9 9 9 9 9 9 9 9 9 8 8 8 8 9 9 9 9 9 9 9 10 10 10 10 10 11 11 12 12 12 13 14 14 15 15
11 11 10 10 10 10 10 10 9 9 9 9 8 8 8 8 8 8 8 8 8 8 8 8 8 9 9 9 9 10 10 10 10 10 11 11 11 12 12 13 13 14 14
11 10 10 10 10 10 9 9 9 9 9 8 8 8 8 8 8 8 8 8 8 8 8 8 8 8 8 9 9 9 9 10 10 10 10 11 11 11 12 12 12 13 13
10 10 10 10 10 9 9 9 9 9 8 8 8 8 8 8 8 8 8 8 8 8 8 8 8 8 8 8 8 9 9 9 10 10 10 10 11 11 11 12 12 12 12
10 10 10 10 10 9 9 9 9 8 8 8 8 8 8 8 8 8 8 7 7 8 8 8 8 8 8 8 8 8 9 9 9 10 10 10 11 11 11 11 12 12 12
10 10 10 9 9 9 9 9 9 8 8 8 8 8 8 8 8 8 7 7 7 7 7 7 8 8 8 8 8 8 9 9 9 9 10 10 10 11 11 11 11 12 12
10 10 10 9 9 9 9 9 9 8 8 8 8 8 8 8 8 7 7 7 7 7 7 7 7 7 8 7 7 8 8 9 9 9 9 10 10 10 10 11 11 11 11
10 10 10 9 9 9 9 9 9 8 8 8 8 8 7 7 7 7 7 7 7 7 7 7 7 7 7 7 7 7 8 8 9 9 9 9 10 10 10 10 11 11 11
10 10 10 9 9 9 9 9 8 8 8 8 8 8 7 7 7 7 7 6 6 6 6 7 7 7 7 7 7 7 8 8 8 9 9 9 10 10 10 10 11 11 11
10 10 10 9 9 9 9 9 9 8 8 8 8 8 8 7 7 7 6 6 6 6 6 6 6 6 6 6 7 7 7 7 8 8 8 9 9 10 10 10 10 11 11
10 10 10 10 9 9 9 9 9 8 8 8 8 7 7 7 7 6 6 6 6 6 6 6 6 6 6 6 7 7 7 7 8 8 8 9 9 10 10 10 10 10 10
10 10 10 10 10 9 9 9 8 8 8 8 8 7 7 7 7 6 6 6 6 6 6 6 6 6 6 6 7 7 7 7 8 8 8 9 9 9 9 9 10 10 10
10 10 10 10 9 9 9 9 9 8 8 8 8 7 7 7 7 6 6 6 6 6 6 6 6 6 6 6 6 7 7 7 7 8 8 8 9 9 9 9 9 10 10
10 10 10 10 9 9 9 9 9 9 8 8 8 7 7 7 7 6 6 6 6 6 6 6 6 6 6 6 6 7 7 7 7 8 8 8 8 9 9 9 9 9 10
10 10 10 10 9 9 9 9 9 9 9 8 8 8 7 7 7 7 6 6 6 6 6 6 6 6 6 6 6 6 7 7 7 8 8 8 8 9 9 9 9 9 9
10 10 10 10 9 9 9 9 9 8 8 9 8 8 8 7 7 7 7 6 6 6 6 6 6 6 6 6 6 7 7 7 7 8 8 8 8 8 9 9 9 9 9
10 10 10 10 10 9 9 9 9 9 8 8 8 8 8 7 7 7 7 7 6 6 6 6 6 6 6 6 6 7 7 7 7 8 8 8 8 8 9 9 9 9 9
10 10 10 10 10 10 9 9 9 9 9 8 8 8 8 8 7 7 7 7 7 7 7 7 7 7 7 7 7 7 7 7 7 8 8 8 8 8 8 9 9 9 9
10 10 10 10 9 9 9 9 9 9 9 8 8 8 8 7 7 7 7 7 7 7 7 7 7 7 7 7 7 7 7 8 8 8 8 8 8 8 8 8 9 9 9
10 10 10 10 9 9 10 9 9 9 9 8 8 8 8 8 7 7 7 7 7 7 7 7 7 7 7 7 7 8 8 8 8 8 8 8 8 8 8 9 9 9 9
10 10 10 9 9 9 10 9 9 9 9 8 8 8 8 8 7 7 7 7 7 7 7 7 7 7 8 8 8 8 8 8 8 8 8 8 8 8 8 9 9 9 9
10 10 9 9 9 9 9 9 9 9 9 8 8 8 8 8 8 7 7 7 7 7 7 7 7 7 8 8 8 8 8 8 8 8 8 8 9 9 9 9 9 9 9
10 9 9 9 9 9 9 9 9 9 8 8 8 8 8 8 8 8 8 8 7 7 7 7 7 7 8 8 8 8 8 8 8 8 8 8 8 9 9 9 9 9 9
10 9 9 9 9 9 9 9 9 9 8 8 8 8 8 8 8 8 8 7 7 7 7 7 7 7 7 8 8 8 8 8 8 8 8 8 8 8 8 9 9 9 9
Wind_Speed
5 5 5 6 6 6 6 7 7 7 8 8 9 8 9 9 8 7 8 8 8 9 8 8 9 7 6 6 5 5 5 5 7 5 3 2 2 1 1 2 3 4 5
5 5 6 7 6 6 7 8 7 8 8 9 9 9 10 9 8 8 9 9 9 10 10 9 10 7 8 6 6 7 6 6 6 7 3 2 2 1 2 3 3 4 5
5 6 7 7 7 8 8 8 8 8 9 9 9 9 10 10 10 10 10 10 10 11 10 10 10 9 9 8 8 7 7 6 6 6 5 3 2 2 2 3 5 4 5
6 6 7 8 8 8 9 9 9 9 9 10 10 10 10 10 10 10 10 10 11 11 11 11 11 10 11 10 8 9 8 7 7 6 6 4 3 3 4 4 4 4 4
6 7 8 8 8 8 9 9 9 10 10 10 10 10 10 9 10 10 10 11 10 11 11 11 11 13 14 11 9 9 9 8 7 6 6 4 4 4 5 4 5 6 4
6 8 8 8 8 9 9 10 10 10 10 10 10 11 11 10 12 14 12 10 10 11 11 11 11 13 15 16 16 15 13 11 10 8 6 6 6 5 5 6 6 6 4
7 8 8 8 9 9 10 10 10 10 10 10 10 10 11 12 15 16 16 12 11 11 12 11 11 11 12 11 13 16 16 17 14 10 9 8 7 7 8 8 8 6 4
7 8 8 8 9 10 10 10 10 9 9 10 11 11 11 12 14 15 15 12 11 12 12 13 12 12 12 11 11 11 11 13 14 12 10 9 8 7 8 8 7 6 5
8 8 8 8 9 10 11 11 10 9 10 10 10 11 11 12 13 14 12 8 9 12 12 12 13 13 14 14 12 11 11 10 11 13 11 10 11 10 9 7 9 9 6
8 8 8 8 9 10 11 11 10 9 10 10 11 10 10 11 12 13 11 7 9 9 9 10 14 14 14 14 12 12 12 10 9 9 9 9 10 10 13 11 10 9 6
8 8 8 9 9 10 10 9 10 9 10 10 11 10 9 10 11 12 10 6 7 8 8 8 8 13 15 15 14 11 13 10 9 9 8 7 7 7 9 9 9 8 7
7 8 9 9 9 8 9 9 9 8 9 9 9 10 8 8 8 9 10 9 9 8 9 8 8 11 14 14 12 12 13 10 7 7 7 7 7 7 8 9 9 8 5
6 8 9 9 9 8 8 9 9 7 7 8 7 8 9 7 7 9 10 10 9 7 7 9 10 11 11 10 12 13 11 8 7 8 8 8 7 7 7 7 8 7 5
7 8 8 8 9 9 7 7 7 7 7 7 8 8 8 8 6 5 5 5 6 6 5 6 6 7 6 6 6 8 8 8 8 8 8 7 6 5 6 7 7 7 6
7 8 8 7 8 8 8 7 8 8 8 8 8 8 8 9 7 7 6 6 5 5 4 3 2 2 3 4 4 5 6 7 8 7 7 6 6 7 6 6 6 7 6
6 7 6 7 7 7 8 9 9 10 12 12 12 11 9 11 12 11 9 9 8 7 3 3 3 3 4 4 5 5 6 7 7 7 7 6 7 8 7 6 7 8 8
7 7 7 7 7 7 7 7 9 10 10 10 10 10 10 11 11 10 9 8 7 5 3 4 4 3 4 4 5 5 6 6 6 7 7 7 7 7 7 7 8 8 8
7 8 7 7 7 7 7 7 7 8 10 8 8 9 9 10 9 8 7 4 3 3 4 4 4 4 4 4 5 5 5 5 5 6 7 7 7 6 7 7 7 9 9
6 6 6 6 6 7 7 6 6 7 7 8 8 7 6 6 6 6 4 3 4 4 4 4 4 4 4 4 4 5 5 5 6 6 7 7 7 7 6 7 7 10 9
6 9 8 6 6 6 6 6 6 6 7 7 7 7 4 3 3 3 3 4 5 5 5 5 4 4 4 4 4 5 5 6 6 6 6 6 7 7 7 7 7 8 8
5 6 9 7 6 6 6 6 6 6 7 7 7 7 6 4 5 5 5 5 5 5 5 5 4 4 4 4 4 5 6 6 6 6 6 7 7 7 7 6 7 8 8
4 5 5 6 6 5 5 5 5 6 7 8 7 7 7 4 4 4 5 5 4 4 4 4 4 4 4 4 5 5 6 6 6 6 7 7 7 7 7 7 7 7 8
4 5 6 5 5 6 6 5 5 5 6 6 6 6 5 4 4 4 4 4 4 3 3 3 4 3 3 4 4 5 6 6 6 7 7 7 7 7 7 8 9 10 10
4 5 5 5 5 4 4 5 5 5 6 6 6 6 6 5 4 5 4 4 3 3 2 2 3 3 4 3 3 4 5 5 5 6 9 8 8 8 8 8 9 11 11
4 4 4 4 4 4 4 4 5 5 5 5 5 5 6 5 5 4 4 3 3 2 2 2 2 2 2 2 2 3 3 5 5 5 7 7 9 9 9 10 9 10 10
4 4 4 3 3 3 3 4 4 4 5 5 5 5 6 5 5 5 4 3 3 3 3 2 2 2 1 1 1 1 2 4 6 6 6 7 8 8 10 9 11 11 11
Wind_Direction
275 278 282 282 283 282 277 276 277 279 279 278 277 277 274 271 267 260 257 257 255 259 257 250 251 248 246 246 242 243 243 241 257 271 267 286 286 225 106 107 121 132 150
274 281 280 282 287 286 282 280 280 280 280 277 276 276 275 272 265 259 260 260 254 255 256 251 253 250 242 242 239 241 241 239 246 261 264 263 262 211 146 124 115 111 115
280 285 288 288 287 284 283 284 283 281 282 281 275 273 272 271 268 263 258 258 255 254 253 250 250 246 245 241 236 238 239 241 240 251 258 251 244 195 150 128 119 111 105
283 285 285 284 283 283 285 284 283 281 281 279 276 272 269 269 268 267 263 259 257 255 253 250 249 244 242 241 237 236 234 235 235 244 245 244 234 191 167 160 146 129 119
284 283 280 283 285 286 287 286 286 285 284 278 279 278 273 269 265 261 258 259 257 258 256 252 248 245 242 238 234 230 226 227 228 233 236 231 215 193 186 169 159 140 118
280 281 284 289 290 289 289 290 290 289 287 285 281 280 278 273 268 265 264 263 259 257 258 256 252 254 252 245 238 231 221 219 221 222 230 228 215 201 186 170 160 159 155
280 283 287 289 290 290 293 295 291 290 288 288 285 282 278 275 271 271 270 266 259 256 254 253 255 251 240 241 242 239 232 225 217 214 221 225 216 199 187 180 176 170 154
282 285 287 288 290 292 294 292 290 289 288 287 286 283 281 279 276 273 274 272 263 258 253 249 247 249 243 234 238 239 236 232 225 222 223 225 220 204 192 185 167 144 121
281 282 284 287 290 294 295 293 292 292 293 290 286 284 282 283 278 276 275 273 264 262 258 251 244 245 239 229 231 237 238 238 232 223 219 223 213 201 184 172 166 161 159
275 279 283 285 286 289 289 290 291 290 290 292 289 287 282 281 281 281 281 270 265 266 263 256 245 239 236 226 226 228 231 231 223 216 216 221 215 201 189 187 182 177 164
274 280 284 286 285 285 285 287 292 294 295 294 293 293 288 282 284 284 283 268 262 266 266 261 251 236 233 229 222 224 225 217 212 208 205 206 209 200 197 197 190 183 177
277 281 286 290 290 292 290 295 296 294 298 299 298 300 295 288 283 286 286 277 267 263 265 260 252 242 236 233 225 223 219 209 206 202 199 200 207 203 199 197 194 192 187
279 284 290 296 294 290 290 296 301 299 298 299 298 298 300 298 291 286 290 292 288 271 268 263 253 247 242 236 228 217 209 204 199 200 202 204 205 203 192 189 188 183 169
277 287 293 299 302 303 298 291 293 296 299 300 297 296 298 298 295 303 304 303 301 294 285 283 272 254 235 225 217 210 206 200 197 203 205 202 192 189 192 186 183 176 168
276 286 293 294 296 303 304 292 286 278 270 278 286 284 289 294 292 293 297 296 295 292 298 284 266 241 216 210 204 197 193 193 198 200 195 190 185 186 191 188 181 174 175
277 288 292 297 300 302 307 310 291 277 282 272 259 261 268 263 279 291 295 296 289 280 267 263 259 239 223 212 204 200 196 196 195 192 191 192 189 187 187 188 184 183 180
261 278 287 291 296 303 305 307 313 316 309 298 286 280 267 272 276 281 288 294 291 265 242 251 250 239 229 216 207 204 201 197 192 189 191 194 191 185 184 189 190 187 183
262 274 281 284 289 294 297 297 297 305 314 316 307 295 291 287 281 277 283 291 282 251 245 249 244 234 226 216 207 204 199 188 189 191 191 190 188 185 185 188 193 189 180
267 277 282 286 287 288 292 295 298 300 302 305 309 308 303 303 293 274 261 248 265 269 259 254 249 239 230 221 211 204 200 197 193 190 190 188 189 189 191 193 192 181 174
268 280 289 289 293 297 300 304 308 309 308 308 309 309 311 308 303 294 263 255 257 262 261 256 252 243 231 221 214 207 204 201 195 192 190 188 189 191 192 192 189 182 181
267 285 294 294 290 292 298 303 305 305 306 307 305 300 290 285 286 289 285 272 261 258 254 253 250 245 233 221 214 208 203 200 196 193 189 188 188 190 189 191 189 183 178
258 274 283 287 291 295 298 299 302 304 306 309 310 313 308 292 288 289 289 285 274 261 251 248 251 242 227 214 209 204 201 196 196 192 188 187 188 189 185 185 185 183 177
252 270 281 285 290 296 302 304 307 310 312 315 316 318 321 316 307 300 296 297 288 278 265 248 251 251 233 216 210 207 206 204 197 189 184 186 188 188 185 184 182 178 179
245 262 276 288 295 303 308 310 312 315 320 323 325 323 323 320 313 307 307 309 304 297 286 264 255 253 248 231 209 206 211 207 195 195 192 189 188 187 184 185 184 183 181
237 253 267 281 292 301 307 310 315 322 327 329 328 326 326 327 325 322 323 322 318 317 318 306 286 276 267 257 240 226 209 199 198 195 193 190 188 186 184 185 183 180 177
231 245 260 273 284 296 303 308 316 326 332 334 332 331 331 333 336 338 340 342 343 341 339 336 333 328 320 288 245 238 204 193 195 197 193 187 186 186 184 184 183 181 178
Height
1504 1502 1500 1498 1496 1493 1491 1488 1486 1484 1481 1479 1477 1475 1474 1472 1471 1470 1469 1468 1468 1467 1467 1467 1468 1469 1469 1470 1470 1471 1471 1471 1470 1469 1470 1470 1471 1472 1474 1476 1479 1483 1487
1501 1499 1497 1494 1492 1489 1487 1484 1481 1479 1477 1474 1472 1470 1468 1467 1465 1464 1463 1462 1461 1461 1461 1461 1461 1462 1463 1464 1465 1465 1466 1467 1467 1466 1466 1467 1468 1469 1471 1473 1476 1480 1483
1497 1495 1493 1490 1488 1485 1482 1479 1477 1474 1471 1469 1466 1464 1462 1461 1459 1458 1457 1456 1455 1454 1454 1454 1454 1455 1456 1457 1458 1459 1461 1462 1462 1462 1462 1463 1464 1466 1468 1471 1473 1476 1480
1493 1491 1489 1486 1483 1480 1478 1475 1471 1468 1465 1463 1460 1458 1456 1454 1453 1452 1450 1449 1448 1448 1447 1447 1447 1448 1449 1450 1452 1453 1455 1456 1457 1458 1458 1459 1461 1462 1464 1467 1470 1473 1477
1489 1487 1485 1482 1479 1476 1473 1470 1466 1463 1460 1457 1454 1452 1450 1448 1446 1445 1444 1442 1442 1441 1440 1440 1441 1441 1442 1443 1445 1447 1449 1450 1452 1453 1454 1455 1456 1458 1461 1463 1467 1470 1474
1486 1483 1481 1478 1475 1471 1468 1464 1461 1457 1454 1451 1448 1446 1444 1442 1440 1438 1437 1435 1434 1433 1433 1433 1433 1434 1435 1436 1438 1440 1442 1444 1446 1447 1449 1450 1452 1454 1457 1459 1462 1466 1470
1482 1479 1477 1473 1470 1467 1463 1459 1455 1452 1448 1445 1443 1440 1437 1435 1434 1432 1430 1428 1427 1426 1425 1425 1426 1426 1427 1429 1431 1433 1435 1437 1439 1442 1443 1445 1448 1450 1452 1455 1458 1462 1466
1478 1476 1473 1469 1466 1462 1458 1455 1451 1447 1443 1440 1437 1434 1431 1429 1427 1425 1423 1421 1419 1418 1418 1417 1417 1418 1420 1421 1423 1425 1427 1430 1433 1435 1438 1440 1443 1446 1448 1451 1454 1458 1463
1475 1472 1469 1465 1461 1458 1454 1450 1446 1442 1438 1435 1431 1428 1425 1423 1421 1418 1416 1414 1412 1411 1410 1409 1409 1410 1411 1414 1416 1417 1420 1423 1426 1429 1432 1435 1437 1440 1443 1446 1449 1454 1458
1470 1467 1464 1461 1457 1453 1449 1445 1441 1438 1433 1430 1426 1423 1420 1417 1414 1412 1409 1407 1404 1403 1402 1402 1401 1402 1403 1406 1408 1410 1413 1416 1420 1423 1426 1429 1431 1434 1437 1441 1445 1449 1453
1466 1463 1460 1457 1453 1449 1445 1441 1437 1433 1429 1425 1421 1418 1415 1411 1408 1406 1403 1400 1398 1396 1395 1394 1394 1395 1396 1398 1400 1403 1406 1411 1414 1417 1420 1423 1426 1429 1432 1436 1440 1445 1448
1462 1459 1456 1453 1449 1445 1441 1437 1433 1429 1424 1420 1416 1413 1410 1407 1403 1400 1398 1395 1393 1391 1389 1388 1388 1388 1390 1392 1394 1397 1401 1405 1408 1411 1414 1418 1421 1424 1428 1432 1436 1440 1444
1458 1455 1451 1448 1445 1441 1437 1433 1429 1424 1420 1416 1412 1408 1405 1402 1399 1396 1393 1390 1388 1386 1384 1383 1382 1383 1384 1386 1389 1392 1395 1399 1402 1405 1409 1413 1417 1420 1424 1428 1432 1436 1440
1453 1450 1447 1444 1441 1437 1434 1429 1425 1420 1416 1412 1408 1405 1401 1398 1394 1391 1388 1386 1384 1382 1380 1379 1379 1379 1380 1382 1384 1387 1390 1393 1397 1401 1405 1409 1413 1416 1419 1423 1427 1431 1436
1449 1446 1443 1440 1437 1433 1430 1426 1421 1417 1413 1409 1405 1401 1397 1394 1391 1388 1385 1383 1381 1379 1377 1376 1376 1376 1377 1378 1381 1383 1386 1390 1393 1397 1401 1405 1408 1412 1416 1419 1423 1427 1431
1445 1442 1439 1436 1433 1429 1426 1422 1418 1415 1410 1406 1402 1398 1394 1391 1388 1385 1383 1380 1378 1377 1376 1374 1374 1374 1375 1376 1378 1380 1383 1386 1389 1393 1397 1401 1404 1408 1412 1415 1419 1422 1426
1441 1438 1435 1432 1429 1426 1422 1418 1414 1410 1407 1403 1399 1395 1391 1388 1385 1382 1380 1378 1376 1375 1374 1373 1373 1373 1373 1374 1376 1378 1380 1384 1387 1390 1394 1397 1401 1404 1407 1411 1414 1417 1422
1438 1435 1432 1429 1426 1423 1419 1415 1411 1407 1402 1399 1396 1392 1389 1385 1383 1380 1378 1376 1374 1373 1372 1371 1371 1372 1372 1373 1374 1376 1379 1381 1384 1387 1391 1394 1397 1400 1404 1407 1410 1413 1417
1434 1431 1429 1426 1423 1420 1417 1413 1409 1405 1400 1396 1393 1389 1386 1383 1381 1378 1376 1374 1372 1371 1370 1370 1370 1370 1371 1371 1373 1375 1377 1379 1382 1385 1388 1391 1394 1397 1400 1403 1406 1409 1413
1430 1428 1425 1422 1419 1417 1414 1410 1406 1403 1398 1394 1390 1387 1384 1381 1378 1376 1374 1371 1370 1369 1368 1368 1368 1368 1369 1370 1371 1373 1375 1377 1379 1382 1385 1388 1392 1395 1397 1400 1403 1406 1410
1426 1424 1422 1419 1416 1414 1411 1407 1404 1400 1396 1392 1388 1385 1382 1379 1377 1374 1372 1370 1368 1367 1366 1366 1366 1367 1367 1368 1369 1371 1373 1375 1377 1380 1383 1386 1389 1392 1395 1398 1400 1404 1408
1422 1420 1418 1416 1413 1411 1408 1405 1401 1398 1394 1390 1386 1383 1380 1377 1375 1373 1370 1368 1367 1366 1365 1365 1365 1365 1366 1367 1368 1369 1371 1373 1375 1378 1381 1384 1387 1390 1392 1395 1398 1402 1405
1418 1416 1414 1412 1410 1407 1405 1402 1399 1396 1392 1388 1385 1381 1378 1375 1373 1371 1369 1367 1366 1365 1364 1363 1363 1364 1364 1365 1366 1368 1369 1371 1374 1376 1378 1381 1384 1387 1390 1393 1396 1399 1402
1413 1411 1410 1408 1406 1404 1402 1399 1397 1394 1391 1387 1384 1380 1377 1374 1372 1370 1368 1366 1365 1364 1363 1362 1362 1362 1362 1363 1364 1366 1368 1369 1371 1373 1376 1379 1381 1384 1387 1390 1393 1396 1400
1408 1407 1406 1404 1403 1401 1399 1397 1395 1392 1389 1386 1383 1380 1377 1374 1371 1369 1367 1365 1364 1363 1362 1361 1361 1360 1361 1361 1362 1363 1365 1367 1369 1371 1373 1375 1378 1381 1383 1386 1390 1393 1397
1403 1402 1401 1400 1399 1398 1396 1395 1393 1390 1388 1385 1382 1379 1377 1374 1371 1369 1367 1365 1363 1362 1360 1360 1359 1359 1359 1359 1360 1361 1362 1363 1365 1367 1370 1372 1374 1377 1380 1383 1387 1390 1394